19.04.2024;22:00;2
19.04.2024;21:00;2
19.04.2024;20:00;2
19.04.2024;19:00;3
19.04.2024;18:00;3
19.04.2024;17:00;3
19.04.2024;16:00;4
19.04.2024;15:00;4
19.04.2024;14:00;6
19.04.2024;13:00;8
19.04.2024;12:00;9
19.04.2024;11:00;8
19.04.2024;10:00;7
19.04.2024;09:00;5
19.04.2024;08:00;5
19.04.2024;07:00;5
19.04.2024;06:00;5
19.04.2024;05:00;4
19.04.2024;04:00;4
19.04.2024;03:00;2
19.04.2024;02:00;2
19.04.2024;01:00;2
18.04.2024;24:00;2
18.04.2024;23:00;3
18.04.2024;22:00;3
18.04.2024;21:00;4
18.04.2024;20:00;7
18.04.2024;19:00;9
18.04.2024;18:00;12
18.04.2024;17:00;14
18.04.2024;16:00;9
18.04.2024;15:00;7
18.04.2024;14:00;4
18.04.2024;13:00;5
18.04.2024;12:00;6
18.04.2024;11:00;8
18.04.2024;10:00;7
18.04.2024;09:00;6
18.04.2024;08:00;4
18.04.2024;07:00;4
18.04.2024;06:00;4
18.04.2024;05:00;4
18.04.2024;04:00;3
18.04.2024;03:00;3
18.04.2024;02:00;4
18.04.2024;01:00;4
17.04.2024;24:00;4
17.04.2024;23:00;3
17.04.2024;22:00;3
17.04.2024;21:00;3
17.04.2024;20:00;3
17.04.2024;19:00;5
17.04.2024;18:00;5
17.04.2024;17:00;7
17.04.2024;16:00;7
17.04.2024;15:00;9
17.04.2024;14:00;7
17.04.2024;13:00;5
17.04.2024;12:00;3
17.04.2024;11:00;2
17.04.2024;10:00;3
17.04.2024;09:00;2
17.04.2024;08:00;2
17.04.2024;07:00;3
17.04.2024;06:00;3
17.04.2024;05:00;3
17.04.2024;04:00;3
17.04.2024;03:00;3
17.04.2024;02:00;3
17.04.2024;01:00;3
16.04.2024;24:00;3
16.04.2024;23:00;4
16.04.2024;22:00;6
16.04.2024;21:00;8
16.04.2024;20:00;7
16.04.2024;19:00;8
16.04.2024;18:00;8
16.04.2024;17:00;8
16.04.2024;16:00;8
16.04.2024;15:00;8
16.04.2024;14:00;8
16.04.2024;13:00;8
16.04.2024;12:00;#
16.04.2024;11:00;3
16.04.2024;10:00;2
16.04.2024;09:00;1
16.04.2024;08:00;2
16.04.2024;07:00;3
16.04.2024;06:00;3
16.04.2024;05:00;4
16.04.2024;04:00;3
16.04.2024;03:00;4
16.04.2024;02:00;5
16.04.2024;01:00;8
15.04.2024;24:00;9
15.04.2024;23:00;9
15.04.2024;22:00;10
15.04.2024;21:00;11
15.04.2024;20:00;12
15.04.2024;19:00;11
15.04.2024;18:00;10
15.04.2024;17:00;9
15.04.2024;16:00;8
15.04.2024;15:00;7
15.04.2024;14:00;8
15.04.2024;13:00;11
15.04.2024;12:00;15
15.04.2024;11:00;11
15.04.2024;10:00;9
15.04.2024;09:00;8
15.04.2024;08:00;7
15.04.2024;07:00;6
15.04.2024;06:00;4
15.04.2024;05:00;4
15.04.2024;04:00;3
15.04.2024;03:00;3
15.04.2024;02:00;3
15.04.2024;01:00;4
14.04.2024;24:00;6
14.04.2024;23:00;8
14.04.2024;22:00;10
14.04.2024;21:00;13
14.04.2024;20:00;17
14.04.2024;19:00;19
14.04.2024;18:00;21
14.04.2024;17:00;21
14.04.2024;16:00;20
14.04.2024;15:00;20
14.04.2024;14:00;20
14.04.2024;13:00;17
14.04.2024;12:00;13
14.04.2024;11:00;12
14.04.2024;10:00;10
14.04.2024;09:00;8
14.04.2024;08:00;6
14.04.2024;07:00;5
14.04.2024;06:00;5
14.04.2024;05:00;5
14.04.2024;04:00;5
14.04.2024;03:00;4
14.04.2024;02:00;4
14.04.2024;01:00;3
